Theta_e
310 310 311 311 312 314 316 316 320 320 320 319 319 319 318 318 320 321 320 319 323 325 326 327 327 327 326 326 325 324 323 321 319 318 317 317 316 316 316 316 316 316 318 320
311 311 311 311 311 311 313 315 316 317 319 319 318 317 318 319 320 321 321 322 321 321 324 326 325 323 323 323 324 324 324 323 322 321 320 319 318 318 318 319 320 320 321 321
309 311 312 312 313 312 312 314 317 320 319 319 319 318 318 319 320 320 321 320 320 321 320 323 321 323 326 323 323 323 323 323 323 323 322 321 321 321 321 320 320 320 321 323
309 308 308 308 311 313 313 316 317 320 319 319 319 318 318 319 319 320 320 319 319 320 321 320 319 322 323 324 323 323 323 323 323 323 322 322 321 320 320 321 322 322 323 322
310 309 308 309 312 311 316 316 319 319 320 320 318 318 319 319 318 318 317 318 318 319 319 320 320 318 320 322 322 323 323 323 323 323 323 323 322 323 322 322 322 321 320 320
309 309 310 315 313 315 316 317 317 317 318 318 319 323 320 318 318 318 317 316 317 318 317 317 317 318 319 321 321 322 322 322 322 322 323 323 322 321 321 320 318 317 316 314
309 309 310 309 309 313 317 317 314 315 315 316 318 319 320 319 320 317 316 318 316 317 318 319 318 318 319 320 321 321 321 322 322 321 321 320 319 318 317 315 314 312 309 306
310 311 311 310 313 315 314 312 312 313 313 313 314 317 318 319 317 316 316 316 316 316 315 316 317 318 318 319 319 320 320 319 318 317 316 315 314 313 312 310 308 306 304 302
311 311 311 311 310 309 311 312 311 311 313 313 313 315 317 315 313 314 314 315 314 314 315 315 316 319 320 316 316 315 315 314 313 312 311 310 310 309 307 305 305 302 300 299
310 309 309 308 310 310 312 311 309 311 313 315 314 316 314 313 311 312 312 311 314 316 315 312 315 315 315 313 313 312 310 309 307 308 306 307 306 303 302 301 300 298 296 294
309 309 308 308 308 308 309 309 310 310 311 314 316 314 315 312 309 307 311 313 314 314 313 310 311 309 309 310 310 308 307 306 305 304 304 302 300 298 298 296 295 294 293 291
310 309 309 309 308 310 309 310 310 309 311 316 317 315 314 308 301 300 306 310 312 311 310 309 309 308 307 307 306 306 305 303 302 300 300 299 298 295 293 293 292 291 291 289
309 308 308 309 309 309 310 309 307 307 310 311 307 311 309 310 307 297 297 300 303 308 304 306 307 306 304 305 305 305 304 302 300 298 296 294 293 293 291 287 287 288 287 286
307 307 308 308 308 308 308 307 306 306 306 310 305 304 303 306 304 301 301 298 298 304 299 302 303 302 301 302 303 302 300 297 295 294 293 291 288 286 284 283 283 283 281 281
307 307 307 307 308 308 307 306 303 302 300 304 304 302 301 299 299 299 299 299 300 299 300 299 299 297 296 297 298 296 295 295 293 292 290 289 288 286 284 281 279 278 277 277
304 306 307 308 308 307 305 304 302 301 299 299 302 297 297 297 294 292 292 293 296 294 293 294 294 292 294 294 294 294 292 291 289 288 287 285 283 281 280 279 277 276 275 274
302 304 304 304 305 304 302 302 300 297 297 295 296 296 293 294 292 291 291 291 292 291 291 291 290 290 291 292 291 290 288 287 285 284 283 282 279 278 277 276 274 273 273 272
299 299 299 299 299 301 298 298 298 295 292 292 291 293 292 292 290 289 289 290 290 289 288 288 288 288 289 288 287 285 285 284 282 280 278 277 277 276 274 273 272 271 271 271
294 294 296 297 297 297 295 294 292 291 291 291 290 289 289 289 288 288 287 288 287 286 284 285 285 285 284 283 283 281 280 278 278 277 276 275 274 273 272 272 271 270 270 270
290 292 293 293 294 293 292 291 290 287 286 286 286 286 283 284 285 285 286 286 284 283 283 283 283 282 280 278 278 278 277 276 276 275 274 274 273 272 272 271 271 271 270 270
288 288 288 288 288 287 286 285 285 283 282 282 282 281 280 281 283 284 285 284 281 282 282 279 278 278 277 277 276 276 276 275 274 274 273 272 272 271 271 271 270 270 269 269
285 285 284 284 284 283 282 281 282 280 279 280 280 281 282 279 279 281 281 281 280 278 277 277 276 276 276 275 275 275 274 274 273 272 272 271 271 271 270 270 270 269 269 269
282 282 282 282 282 281 280 280 280 281 281 280 280 281 282 280 277 279 280 276 276 275 275 275 274 274 274 274 274 273 273 272 272 272 271 271 270 270 270 269 269 269 269 268
281 280 280 279 279 279 278 277 279 280 281 282 282 281 281 282 280 277 276 274 274 274 275 274 273 273 273 273 273 272 271 271 271 271 270 270 270 269 269 269 269 268 268 269
279 278 278 278 277 276 277 278 279 280 280 280 280 280 280 279 278 274 273 273 273 274 273 272 272 272 272 272 271 271 271 271 270 270 270 269 269 269 269 268 268 268 268 269
279 278 277 277 276 276 277 278 280 280 280 280 279 278 276 274 273 273 273 272 272 272 272 271 271 271 271 271 271 270 270 270 270 269 269 269 269 268 268 268 268 268 268 268
278 278 278 278 278 278 279 280 280 279 279 278 275 273 273 272 272 272 271 271 271 271 271 271 271 270 270 270 270 270 269 269 269 269 269 268 268 268 268 268 268 268 268 268
Wind_Speed
10 12 15 16 16 17 17 14 15 16 19 16 12 16 22 26 24 17 7 13 17 18 20 22 24 25 25 25 28 30 31 32 33 31 31 30 30 31 32 32 32 31 30 28
8 13 15 20 22 21 20 20 22 19 24 20 24 25 24 24 25 20 15 11 9 15 19 23 25 27 27 26 25 26 27 28 25 26 28 29 29 29 28 27 25 25 25 28
4 2 7 13 19 25 23 19 18 19 19 17 19 20 26 24 24 21 21 17 16 16 20 24 27 27 24 27 26 25 23 22 22 22 22 23 23 22 22 21 22 25 26 26
4 5 8 9 6 12 17 13 10 13 14 16 21 25 26 20 16 16 16 17 20 22 18 18 21 22 25 23 25 25 24 22 22 21 21 21 21 21 21 20 21 23 22 22
4 8 14 18 9 10 13 14 5 7 10 14 16 27 29 30 26 27 28 26 23 22 19 23 28 23 25 27 27 25 25 23 22 22 21 19 16 16 17 17 17 17 17 16
5 4 4 5 10 13 10 13 9 11 12 11 18 9 10 22 22 12 16 19 21 15 19 19 20 21 23 25 24 26 24 22 19 18 18 18 16 14 13 13 12 10 9 10
10 8 9 11 17 15 8 5 19 15 17 18 12 13 26 24 18 17 14 11 11 9 12 15 17 22 24 28 26 24 23 23 23 21 19 16 15 13 11 10 9 9 9 10
9 8 11 1 3 5 9 15 21 20 16 16 28 24 20 14 11 7 5 5 10 12 15 17 21 26 30 30 30 29 28 27 25 23 20 18 14 14 12 11 12 14 13 13
8 6 4 5 12 18 20 21 19 25 21 21 29 23 12 11 6 0 5 9 16 21 22 22 22 27 34 34 30 28 26 24 22 19 18 18 15 16 17 14 14 15 12 11
11 12 13 15 15 18 15 16 21 21 20 25 20 5 7 5 4 6 12 17 24 29 33 34 35 35 34 35 27 23 25 26 24 22 22 23 19 18 18 16 13 12 10 9
12 13 15 16 12 14 16 22 20 22 28 19 12 6 6 6 9 8 17 22 27 33 37 36 35 33 30 29 27 27 28 28 25 24 23 24 23 19 16 16 13 11 10 7
10 13 13 19 19 12 18 18 18 22 19 9 8 6 3 9 7 9 20 28 32 33 35 34 32 31 30 29 27 28 30 29 27 25 24 21 20 20 16 13 9 7 5 4
18 20 20 21 18 19 12 15 21 15 6 1 2 5 7 12 3 7 21 29 36 39 36 36 35 33 31 31 28 27 26 28 26 24 23 21 19 16 15 12 6 5 4 2
19 18 23 17 17 14 15 18 14 8 3 6 5 9 14 17 15 16 16 19 26 33 31 34 34 33 30 29 27 25 29 28 26 23 20 17 15 14 13 11 9 8 6 4
19 13 18 19 13 13 11 11 5 3 1 3 6 9 11 15 21 23 25 26 26 30 30 30 32 32 28 28 28 29 27 24 20 19 17 16 15 14 13 11 10 9 7 5
17 15 14 12 10 6 6 9 7 6 4 5 11 10 14 18 22 25 26 25 30 33 34 34 34 31 26 24 25 24 22 20 20 19 18 16 14 13 11 9 8 7 4 4
16 15 18 18 12 10 8 8 8 8 8 9 13 16 17 22 24 24 26 30 33 34 31 30 31 26 23 21 20 22 22 20 17 16 15 13 12 11 9 8 8 6 5 6
10 12 14 18 19 16 10 9 9 11 13 15 19 22 24 27 31 34 35 34 33 34 30 28 26 24 23 20 18 19 17 16 15 13 12 11 10 9 10 9 8 7 6 7
11 12 14 13 12 6 8 9 11 15 16 20 24 28 30 35 38 38 37 35 34 33 28 25 23 22 21 18 15 15 14 13 13 13 13 12 11 11 10 9 9 8 7 6
10 10 9 8 6 4 7 9 12 16 20 26 30 34 36 39 40 39 37 36 31 30 26 22 19 18 17 15 13 13 13 13 13 14 14 13 12 11 11 9 8 6 5 5
7 5 3 1 3 6 10 14 17 22 26 29 34 37 37 36 36 34 34 35 29 25 22 19 16 16 16 14 14 14 14 15 14 14 13 13 12 10 8 7 6 5 5 6
4 2 3 5 8 13 15 18 23 28 30 32 35 37 37 31 29 30 30 30 27 22 19 17 17 16 16 15 15 15 15 14 14 13 12 11 9 8 6 5 5 5 6 7
5 6 8 9 12 17 19 21 25 28 33 34 34 33 32 30 21 24 28 24 22 19 18 19 18 17 16 16 15 14 13 13 13 12 10 8 7 5 5 5 5 6 7 8
9 11 13 15 18 22 28 29 32 35 36 34 30 28 28 29 22 22 24 22 20 18 18 19 18 16 14 15 14 12 11 11 10 9 8 6 4 4 5 5 6 7 8 10
13 16 18 20 22 24 28 31 34 33 33 32 29 26 24 20 21 23 21 21 19 18 19 18 16 14 13 13 12 10 9 8 7 6 5 5 4 4 5 6 7 8 10 12
16 16 18 19 21 24 28 30 33 31 29 27 24 21 21 22 22 21 20 20 19 17 17 16 14 12 11 10 9 7 6 6 5 4 4 4 4 5 6 7 8 10 12 13
18 21 23 25 25 26 28 28 28 26 24 23 25 22 21 21 20 19 19 17 16 15 14 13 11 9 8 7 6 5 4 4 3 3 4 4 5 6 7 8 9 11 12 14
Wind_Direction
258 278 287 278 271 268 265 266 259 275 274 273 267 259 275 279 279 291 248 219 204 204 206 204 208 211 213 212 215 216 216 219 224 225 229 230 232 237 242 245 248 252 253 254
257 259 264 268 263 259 257 263 278 263 261 257 266 267 260 263 261 262 264 247 236 227 218 214 212 213 212 213 213 214 216 219 220 225 230 233 238 240 244 246 245 247 250 255
249 186 279 266 254 249 254 253 272 276 279 281 254 249 254 249 258 252 258 265 265 252 237 224 223 216 211 209 208 210 210 214 217 219 224 226 232 235 238 240 244 248 252 258
259 277 249 248 328 283 246 250 305 323 309 268 267 256 249 249 263 272 274 278 284 272 252 243 236 223 211 208 207 205 204 206 207 210 214 219 226 232 238 244 246 247 249 252
242 238 285 285 307 254 248 271 65 2 338 340 306 275 274 267 271 274 275 277 278 271 257 238 245 230 216 205 202 201 198 204 204 203 206 211 214 214 219 224 230 238 242 245
198 262 261 81 9 339 310 263 16 6 342 343 324 282 271 277 297 287 267 262 265 254 239 232 219 213 197 193 190 191 192 188 184 180 179 181 188 196 205 210 212 208 232 230
232 246 269 284 297 321 257 346 344 327 330 331 316 307 308 289 294 287 262 258 244 207 191 184 181 179 179 181 170 173 165 161 159 161 164 168 173 174 177 182 191 197 197 165
225 237 260 290 36 356 317 318 318 314 329 323 305 300 319 303 302 288 236 197 172 164 157 156 164 170 158 149 148 153 155 153 151 151 150 149 160 157 158 162 160 150 148 142
204 214 238 216 291 294 287 292 318 309 301 305 297 285 328 302 299 242 134 138 138 150 143 143 152 163 147 139 142 145 144 140 141 143 143 135 137 138 138 140 142 140 138 131
260 256 271 274 275 285 288 293 310 309 301 308 269 251 346 269 252 168 155 143 144 143 138 135 141 140 139 138 141 143 135 127 128 129 130 124 132 131 131 130 131 129 121 108
257 264 270 267 279 289 295 312 318 328 321 301 234 236 334 268 195 177 157 152 150 144 138 134 136 134 131 128 136 135 129 125 127 125 125 125 122 115 118 116 121 121 114 110
259 279 290 290 295 302 308 315 326 322 325 302 268 243 255 207 174 184 153 150 146 138 135 133 132 128 125 129 132 130 122 127 125 124 120 120 121 121 115 114 117 113 114 111
269 286 287 282 289 297 296 321 322 325 338 63 260 202 156 95 15 162 147 144 144 142 140 140 137 138 139 137 136 129 130 132 132 128 123 119 118 115 115 103 110 110 99 81
281 289 287 279 294 300 306 314 318 323 327 217 186 146 138 127 134 141 126 127 132 139 137 134 136 132 136 139 136 137 135 131 129 125 124 123 120 115 115 113 102 95 77 48
291 295 284 294 291 296 302 310 296 285 221 136 169 158 153 143 139 135 135 138 134 131 128 130 128 124 133 135 131 126 127 128 129 127 127 127 124 119 116 112 105 97 73 23
308 309 299 299 307 312 300 303 278 251 217 189 175 170 160 153 142 138 138 139 136 124 123 125 122 123 127 126 125 124 123 124 126 125 124 121 117 115 111 105 98 89 75 43
314 317 312 308 307 307 287 276 258 224 205 194 176 168 160 150 141 134 126 125 121 118 117 117 116 123 123 121 122 123 124 124 122 120 119 115 112 105 102 100 94 84 60 42
303 301 299 294 295 289 267 258 225 200 185 177 171 163 156 149 139 132 130 130 128 123 122 121 123 122 118 118 120 120 121 121 120 116 112 111 110 108 106 104 97 89 71 50
312 302 296 296 300 283 219 205 197 197 189 175 166 159 156 148 141 137 136 132 127 122 117 121 119 120 118 116 117 117 117 118 117 115 112 108 104 103 100 97 91 83 70 51
317 308 300 293 282 252 204 197 182 169 166 165 162 153 146 141 142 140 139 129 125 121 122 122 123 118 115 114 116 115 114 114 111 109 108 107 103 98 92 87 80 69 55 32
338 336 323 312 172 157 160 163 163 156 151 156 154 144 139 138 139 137 132 123 120 124 121 122 120 116 114 114 115 113 112 110 110 106 102 99 97 94 88 81 68 49 30 14
343 26 107 135 146 138 143 150 154 149 148 148 144 139 137 130 132 129 122 120 122 121 125 123 120 118 116 115 113 112 110 108 107 103 100 97 95 90 80 64 43 25 13 3
88 107 124 133 136 135 137 143 145 144 140 137 134 135 132 127 117 118 117 118 122 126 124 120 115 112 113 113 109 107 108 107 102 101 99 95 89 80 63 39 21 12 4 355
112 119 123 130 135 136 131 135 140 140 138 137 136 132 131 131 128 120 118 122 122 125 120 116 114 115 115 108 106 108 105 101 98 95 92 88 75 52 34 18 9 1 352 346
115 116 121 123 120 117 127 134 132 131 131 129 129 129 129 128 129 127 124 121 121 123 121 118 115 113 108 105 105 104 98 94 92 90 81 63 43 23 11 3 356 349 343 341
110 108 111 115 118 125 130 133 128 128 128 126 123 124 128 128 123 124 123 122 123 123 121 119 116 111 107 105 103 98 93 88 77 63 47 30 14 2 353 347 343 341 340 339
123 126 125 125 127 130 131 129 127 126 129 130 131 131 129 125 125 125 125 126 124 122 120 116 113 109 107 103 93 82 71 60 43 26 14 2 351 343 338 335 336 335 335 336